�������l�o���
Date,Time,MP-1(��Sv/h),MP-2(��Sv/h),MP-3(��Sv/h),MP-4(��Sv/h),MP-5(��Sv/h),MP-6(��Sv/h),MP-7(��Sv/h),MP-8(��Sv/h),����,����(m/s),���J
2023/08/11,00:00,0.541,0.815,0.502,1.002,0.734,0.323,0.575,0.535,��쓌,8.0,��
2023/08/11,00:10,0.541,0.813,0.499,0.999,0.733,0.324,0.576,0.534,��쓌,7.5,��
2023/08/11,00:20,0.539,0.816,0.500,1.000,0.734,0.323,0.575,0.535,��쓌,6.5,��
2023/08/11,00:30,0.540,0.816,0.500,1.002,0.735,0.324,0.576,0.535,��쓌,7.4,��
2023/08/11,00:40,0.542,0.817,0.499,0.998,0.734,0.324,0.575,0.536,��쓌,8.0,��
2023/08/11,00:50,0.541,0.815,0.500,0.999,0.734,0.324,0.577,0.534,��쓌,7.6,��
2023/08/11,01:00,0.542,0.814,0.500,0.998,0.736,0.323,0.575,0.535,��쓌,8.0,��
2023/08/11,01:10,0.541,0.816,0.501,0.999,0.734,0.324,0.576,0.535,��쓌,7.5,��
2023/08/11,01:20,0.542,0.817,0.499,0.999,0.733,0.324,0.576,0.535,��쓌,7.9,��
2023/08/11,01:30,0.542,0.817,0.499,0.999,0.734,0.322,0.574,0.536,��쓌,7.6,��
2023/08/11,01:40,0.541,0.817,0.501,1.002,0.735,0.323,0.576,0.536,��쓌,8.0,��
2023/08/11,01:50,0.541,0.816,0.500,0.998,0.734,0.322,0.576,0.536,��쓌,7.5,��
2023/08/11,02:00,0.542,0.816,0.500,1.003,0.734,0.323,0.575,0.534,��쓌,7.4,��
2023/08/11,02:10,0.540,0.818,0.500,0.998,0.736,0.324,0.575,0.535,��,6.5,��
2023/08/11,02:20,0.542,0.816,0.500,0.999,0.733,0.324,0.576,0.534,��,5.8,��
2023/08/11,02:30,0.541,0.814,0.500,0.999,0.734,0.324,0.574,0.535,��,5.9,��
2023/08/11,02:40,0.541,0.813,0.500,1.000,0.734,0.324,0.576,0.534,��,5.5,��
2023/08/11,02:50,0.541,0.815,0.501,1.001,0.734,0.322,0.574,0.535,��,5.1,��
2023/08/11,03:00,0.541,0.817,0.500,1.000,0.733,0.325,0.576,0.536,��,5.0,��
2023/08/11,03:10,0.541,0.815,0.502,1.003,0.733,0.323,0.575,0.536,��,4.8,��
2023/08/11,03:20,0.542,0.818,0.499,1.002,0.733,0.324,0.576,0.534,��,5.2,��
2023/08/11,03:30,0.542,0.817,0.500,1.001,0.734,0.324,0.575,0.535,��,4.7,��
2023/08/11,03:40,0.542,0.816,0.500,0.998,0.734,0.324,0.577,0.534,��,4.1,�L
2023/08/11,03:50,0.541,0.817,0.500,1.001,0.735,0.324,0.576,0.534,��쓌,4.0,��
2023/08/11,04:00,0.542,0.815,0.500,0.998,0.734,0.324,0.576,0.535,��쓌,3.4,��
2023/08/11,04:10,0.542,0.816,0.499,1.000,0.734,0.324,0.575,0.534,��쓌,4.0,��
2023/08/11,04:20,0.541,0.816,0.500,1.002,0.733,0.323,0.575,0.535,��쓌,3.6,��
2023/08/11,04:30,0.542,0.815,0.499,0.999,0.735,0.324,0.576,0.535,��쓌,3.5,��
2023/08/11,04:40,0.542,0.817,0.502,0.999,0.734,0.323,0.574,0.535,��쓌,3.7,��
2023/08/11,04:50,0.542,0.818,0.499,0.999,0.733,0.324,0.574,0.536,��쓌,3.9,��
2023/08/11,05:00,0.544,0.817,0.501,1.001,0.734,0.323,0.574,0.534,��쓌,3.6,��
2023/08/11,05:10,0.542,0.815,0.500,0.999,0.733,0.323,0.575,0.535,��쓌,3.7,��
2023/08/11,05:20,0.541,0.815,0.501,1.000,0.735,0.324,0.574,0.533,��쓌,3.4,��
2023/08/11,05:30,0.541,0.817,0.501,1.000,0.734,0.323,0.576,0.535,��쓌,2.6,��
2023/08/11,05:40,0.543,0.816,0.499,1.001,0.733,0.324,0.574,0.537,��쓌,2.5,��
2023/08/11,05:50,0.541,0.816,0.500,1.002,0.732,0.325,0.575,0.534,��쓌,1.7,�L
2023/08/11,06:00,0.544,0.818,0.499,1.001,0.733,0.323,0.575,0.535,���쓌,1.9,�L
2023/08/11,06:10,0.542,0.817,0.499,0.999,0.732,0.325,0.575,0.535,��,1.7,��
2023/08/11,06:20,0.541,0.816,0.499,1.000,0.734,0.324,0.575,0.535,��,1.4,��
2023/08/11,06:30,0.542,0.817,0.501,1.001,0.734,0.325,0.576,0.535,��,1.2,��
2023/08/11,06:40,0.544,0.818,0.500,0.999,0.732,0.324,0.576,0.536,��쓌,1.5,��
2023/08/11,06:50,0.544,0.817,0.499,1.001,0.733,0.324,0.575,0.536,�쓌,1.7,��
2023/08/11,07:00,0.543,0.816,0.499,0.999,0.730,0.324,0.576,0.535,���쓌,2.0,��
2023/08/11,07:10,0.544,0.818,0.500,1.001,0.735,0.324,0.576,0.536,�쓌,2.3,�L
2023/08/11,07:20,0.543,0.815,0.499,1.001,0.733,0.323,0.575,0.534,�쓌,2.5,��
2023/08/11,07:30,0.543,0.819,0.499,0.999,0.733,0.326,0.575,0.535,���쓌,2.5,��
2023/08/11,07:40,0.544,0.817,0.500,0.998,0.733,0.324,0.576,0.535,���쓌,2.2,��
2023/08/11,07:50,0.542,0.821,0.502,1.002,0.733,0.323,0.577,0.536,���쓌,1.7,��
2023/08/11,08:00,0.545,0.818,0.500,1.001,0.734,0.323,0.576,0.534,���쓌,2.2,��
2023/08/11,08:10,0.543,0.817,0.499,1.000,0.734,0.325,0.577,0.536,���k��,2.0,��
2023/08/11,08:20,0.542,0.815,0.500,1.002,0.731,0.324,0.577,0.535,��,2.6,��
2023/08/11,08:30,0.545,0.817,0.498,1.002,0.733,0.324,0.576,0.537,���k��,2.3,��
2023/08/11,08:40,0.542,0.817,0.499,1.000,0.734,0.324,0.575,0.535,��,2.3,��
2023/08/11,08:50,0.542,0.817,0.499,1.001,0.734,0.324,0.578,0.535,��,2.3,��
2023/08/11,09:00,0.544,0.818,0.498,1.002,0.733,0.326,0.577,0.535,���쓌,2.5,��
2023/08/11,09:10,0.544,0.818,0.499,1.002,0.734,0.324,0.578,0.534,��,1.7,��
2023/08/11,09:20,0.544,0.820,0.499,1.001,0.735,0.323,0.578,0.534,�쓌,1.5,��
2023/08/11,09:30,0.543,0.819,0.499,1.002,0.734,0.322,0.577,0.535,�쓌,2.3,��
2023/08/11,09:40,0.543,0.820,0.499,1.001,0.736,0.324,0.578,0.536,���쓌,1.2,��
2023/08/11,09:50,0.545,0.820,0.501,1.002,0.735,0.324,0.579,0.535,���쓌,1.7,��
2023/08/11,10:00,0.545,0.818,0.500,1.001,0.735,0.325,0.577,0.535,�쓌,2.5,��
2023/08/11,10:10,0.544,0.819,0.500,1.001,0.736,0.324,0.576,0.535,�쓌,2.2,��
2023/08/11,10:20,0.545,0.820,0.499,1.003,0.737,0.324,0.576,0.535,���쓌,2.5,��
2023/08/11,10:30,0.544,0.818,0.500,1.002,0.737,0.325,0.575,0.535,���쓌,2.9,��
2023/08/11,10:40,0.544,0.822,0.502,1.002,0.738,0.323,0.576,0.535,���k��,1.9,��
2023/08/11,10:50,0.544,0.823,0.500,1.002,0.739,0.324,0.576,0.537,���k��,0.8,��
2023/08/11,11:00,0.545,0.820,0.501,1.001,0.737,0.323,0.577,0.536,��,1.7,��
2023/08/11,11:10,0.545,0.820,0.501,1.003,0.737,0.325,0.575,0.538,�k��,1.1,��
2023/08/11,11:20,0.545,0.822,0.501,1.005,0.738,0.324,0.579,0.536,��,2.0,��
2023/08/11,11:30,0.544,0.820,0.502,1.003,0.736,0.324,0.578,0.535,���k��,1.7,��
2023/08/11,11:40,0.548,0.820,0.503,1.003,0.738,0.325,0.578,0.535,��,2.0,��
2023/08/11,11:50,0.547,0.822,0.502,1.001,0.740,0.326,0.577,0.537,���k��,2.2,��
2023/08/11,12:00,0.546,0.820,0.502,1.000,0.741,0.324,0.578,0.537,���k��,1.5,��
2023/08/11,12:10,0.549,0.823,0.501,1.002,0.739,0.324,0.576,0.537,���쓌,3.3,��
2023/08/11,12:20,0.547,0.823,0.501,1.003,0.740,0.325,0.577,0.537,���k��,2.3,��
2023/08/11,12:30,0.550,0.823,0.503,1.002,0.739,0.324,0.576,0.537,�k��,2.5,��
2023/08/11,12:40,0.550,0.822,0.502,1.004,0.739,0.325,0.576,0.538,���k��,2.5,��
2023/08/11,12:50,0.547,0.825,0.503,1.004,0.741,0.324,0.576,0.537,�k��,2.3,��
2023/08/11,13:00,0.547,0.824,0.501,1.003,0.742,0.326,0.577,0.538,���k��,2.9,��
2023/08/11,13:10,0.548,0.825,0.504,1.003,0.740,0.326,0.578,0.537,��,2.6,��
2023/08/11,13:20,0.549,0.823,0.505,1.003,0.741,0.324,0.578,0.538,���k��,3.0,��
2023/08/11,13:30,0.548,0.824,0.505,1.006,0.738,0.326,0.580,0.539,���k��,3.1,��
2023/08/11,13:40,0.550,0.826,0.503,1.005,0.741,0.325,0.580,0.539,�k��,3.7,��
2023/08/11,13:50,0.549,0.825,0.506,1.007,0.741,0.325,0.579,0.537,�k��,4.1,��
2023/08/11,14:00,0.546,0.825,0.504,1.007,0.742,0.325,0.581,0.538,�k��,4.1,��
2023/08/11,14:10,0.548,0.824,0.504,1.007,0.743,0.324,0.580,0.538,�k�k��,2.8,��
2023/08/11,14:20,0.549,0.826,0.504,1.006,0.742,0.325,0.580,0.538,�k��,3.9,��
2023/08/11,14:30,0.548,0.824,0.506,1.004,0.742,0.325,0.580,0.538,�k��,3.9,��
2023/08/11,14:40,0.549,0.826,0.505,1.004,0.744,0.325,0.579,0.538,�k��,3.4,��
2023/08/11,14:50,0.550,0.827,0.506,1.006,0.744,0.324,0.580,0.537,�k��,3.8,��
2023/08/11,15:00,0.549,0.825,0.506,1.006,0.745,0.326,0.579,0.536,�k��,4.0,��
2023/08/11,15:10,0.550,0.826,0.504,1.005,0.744,0.324,0.579,0.535,�k��,3.5,��
2023/08/11,15:20,0.548,0.827,0.505,1.004,0.745,0.324,0.579,0.537,�k�k��,3.3,��
2023/08/11,15:30,0.549,0.827,0.503,1.005,0.744,0.323,0.579,0.536,�k�k��,3.6,��
2023/08/11,15:40,0.548,0.826,0.504,1.008,0.744,0.325,0.580,0.537,�k��,4.3,��
2023/08/11,15:50,0.548,0.829,0.505,1.007,0.744,0.324,0.581,0.536,�k��,4.0,��
2023/08/11,16:00,0.548,0.828,0.504,1.006,0.742,0.324,0.580,0.537,�k�k��,4.8,��
2023/08/11,16:10,0.548,0.828,0.504,1.009,0.743,0.325,0.580,0.537,�k�k��,4.6,��
2023/08/11,16:20,0.549,0.828,0.504,1.007,0.744,0.326,0.580,0.536,�k��,4.8,��
2023/08/11,16:30,0.546,0.827,0.505,1.007,0.742,0.325,0.579,0.538,�k�k��,4.4,��
2023/08/11,16:40,0.548,0.826,0.503,1.008,0.743,0.326,0.578,0.536,�k�k��,3.3,��
2023/08/11,16:50,0.548,0.828,0.503,1.010,0.744,0.325,0.579,0.536,�k�k��,3.5,��
2023/08/11,17:00,0.547,0.827,0.504,1.008,0.741,0.326,0.578,0.535,�k�k��,3.1,��
2023/08/11,17:10,0.548,0.827,0.504,1.008,0.743,0.327,0.578,0.536,�k�k��,3.6,��
2023/08/11,17:20,0.548,0.827,0.504,1.008,0.742,0.325,0.578,0.538,�k,3.8,��
2023/08/11,17:30,0.547,0.825,0.505,1.009,0.741,0.325,0.580,0.536,�k,3.6,��
2023/08/11,17:40,0.549,0.826,0.503,1.007,0.742,0.326,0.579,0.536,�k�k��,3.5,��
2023/08/11,17:50,0.548,0.827,0.505,1.006,0.741,0.326,0.578,0.537,�k�k��,3.1,��
2023/08/11,18:00,0.548,0.825,0.503,1.010,0.741,0.325,0.578,0.536,�k,3.6,��
2023/08/11,18:10,0.547,0.826,0.504,1.007,0.744,0.326,0.579,0.536,�k,4.0,��
2023/08/11,18:20,0.549,0.825,0.504,1.010,0.742,0.325,0.578,0.536,�k,4.4,��
2023/08/11,18:30,0.548,0.825,0.505,1.007,0.741,0.327,0.578,0.538,�k,4.6,�L
2023/08/11,18:40,0.549,0.826,0.504,1.009,0.739,0.324,0.578,0.537,�k,4.7,��
2023/08/11,18:50,0.548,0.825,0.503,1.009,0.742,0.324,0.579,0.537,�k,4.2,�L
2023/08/11,19:00,0.545,0.822,0.501,1.009,0.741,0.324,0.577,0.535,�k�k��,4.4,�L
2023/08/11,19:10,0.545,0.818,0.499,1.005,0.738,0.324,0.575,0.538,�k,5.3,�L
2023/08/11,19:20,0.545,0.818,0.500,1.004,0.738,0.325,0.577,0.537,�k,4.1,��
2023/08/11,19:30,0.543,0.817,0.500,1.007,0.737,0.326,0.578,0.536,�k,4.5,�L
2023/08/11,19:40,0.543,0.817,0.500,1.005,0.738,0.324,0.577,0.535,�k,6.5,�L
2023/08/11,19:50,0.543,0.817,0.500,1.004,0.737,0.325,0.577,0.536,�k,6.0,�L
2023/08/11,20:00,0.541,0.816,0.498,1.004,0.736,0.324,0.578,0.536,�k,5.3,�L
2023/08/11,20:10,0.541,0.816,0.497,1.004,0.737,0.325,0.578,0.536,�k,5.0,�L
2023/08/11,20:20,0.542,0.815,0.499,1.003,0.737,0.324,0.575,0.534,�k,4.9,�L
2023/08/11,20:30,0.541,0.813,0.498,1.003,0.735,0.325,0.577,0.537,�k,5.9,�L
2023/08/11,20:40,0.541,0.814,0.497,1.004,0.735,0.325,0.578,0.535,�k,6.3,�L
2023/08/11,20:50,0.541,0.814,0.498,1.004,0.734,0.323,0.576,0.535,�k,6.5,�L
2023/08/11,21:00,0.539,0.812,0.497,1.002,0.734,0.324,0.577,0.533,�k,5.5,�L
2023/08/11,21:10,0.537,0.811,0.496,1.004,0.732,0.323,0.575,0.535,�k,5.4,�L
2023/08/11,21:20,0.535,0.810,0.494,1.001,0.729,0.322,0.573,0.533,�k,4.8,�L
2023/08/11,21:30,0.536,0.807,0.494,1.000,0.726,0.322,0.573,0.534,�k�k��,5.2,�L
2023/08/11,21:40,0.535,0.805,0.493,0.996,0.724,0.321,0.573,0.534,�k�k��,4.9,�L
2023/08/11,21:50,0.534,0.804,0.494,0.996,0.724,0.321,0.574,0.534,�k�k��,5.1,�L
2023/08/11,22:00,0.534,0.803,0.493,0.995,0.723,0.320,0.574,0.533,�k�k��,4.6,�L
2023/08/11,22:10,0.535,0.804,0.493,0.996,0.724,0.322,0.575,0.534,�k�k��,5.6,�L
2023/08/11,22:20,0.536,0.805,0.493,0.995,0.723,0.321,0.574,0.534,�k��,4.9,�L
2023/08/11,22:30,0.533,0.804,0.493,0.995,0.722,0.321,0.574,0.534,�k�k��,4.5,�L
2023/08/11,22:40,0.534,0.804,0.494,0.998,0.723,0.322,0.574,0.533,�k�k��,4.4,��
2023/08/11,22:50,0.534,0.802,0.494,0.996,0.724,0.323,0.574,0.532,�k�k��,5.9,�L
2023/08/11,23:00,0.536,0.804,0.494,0.997,0.721,0.322,0.575,0.533,�k��,5.8,��
2023/08/11,23:10,0.536,0.805,0.494,0.998,0.722,0.321,0.574,0.534,�k�k��,5.3,��
2023/08/11,23:20,0.537,0.807,0.494,0.999,0.723,0.323,0.576,0.532,�k�k��,5.7,��
2023/08/11,23:30,0.536,0.805,0.494,0.999,0.723,0.320,0.572,0.532,�k�k��,6.6,�L
2023/08/11,23:40,0.536,0.807,0.496,0.996,0.724,0.321,0.574,0.534,�k�k��,7.4,�L
2023/08/11,23:50,0.536,0.806,0.494,0.996,0.723,0.323,0.574,0.534,�k��,6.1,��
